Time,TemperatureF,DewpointF,PressureIn,WindDirection,WindDirectionDegrees,WindSpeedMPH,WindSpeedGustMPH,Humidity,HourlyPrecipIn,Conditions,Clouds,dailyrainin,SolarRadiationWatts/m^2,SoftwareType,DateUTC
2017-05-24 00:02:00,60.5,58.0,29.94,West,259,1.0,3.0,93,0.00,,,0.00,0,weatherlink.com 1.10,2017-05-24 07:02:00,
2017-05-24 00:16:00,60.5,58.0,29.94,NE,40,0.0,3.0,93,0.00,,,0.00,0,weatherlink.com 1.10,2017-05-24 07:16:00,
2017-05-24 00:30:00,60.5,58.0,29.93,WSW,238,0.0,2.0,93,0.00,,,0.00,0,weatherlink.com 1.10,2017-05-24 07:30:00,
2017-05-24 00:45:00,60.5,58.0,29.93,WSW,238,0.0,2.0,93,0.00,,,0.00,0,weatherlink.com 1.10,2017-05-24 07:45:00,
2017-05-24 00:59:00,60.4,58.0,29.93,NW,319,1.0,2.0,93,0.00,,,0.00,0,weatherlink.com 1.10,2017-05-24 07:59:00,
2017-05-24 01:16:00,60.2,58.0,29.92,North,350,0.0,1.0,93,0.00,,,0.00,0,weatherlink.com 1.10,2017-05-24 08:16:00,
2017-05-24 01:30:00,60.3,58.0,29.92,North,350,0.0,2.0,93,0.00,,,0.00,0,weatherlink.com 1.10,2017-05-24 08:30:00,
2017-05-24 01:45:00,60.2,58.0,29.92,North,349,1.0,2.0,93,0.00,,,0.00,0,weatherlink.com 1.10,2017-05-24 08:45:00,
2017-05-24 02:01:00,60.1,58.0,29.91,North,349,1.0,3.0,93,0.00,,,0.00,0,weatherlink.com 1.10,2017-05-24 09:01:00,
2017-05-24 02:16:00,59.9,58.0,29.90,North,350,1.0,3.0,93,0.00,,,0.00,0,weatherlink.com 1.10,2017-05-24 09:16:00,
2017-05-24 02:31:00,60.1,58.0,29.91,WSW,256,0.0,3.0,93,0.00,,,0.00,0,weatherlink.com 1.10,2017-05-24 09:31:00,
2017-05-24 02:45:00,60.1,58.0,29.91,WSW,253,1.0,3.0,93,0.00,,,0.00,0,weatherlink.com 1.10,2017-05-24 09:45:00,
2017-05-24 02:59:00,59.9,58.0,29.91,WSW,240,1.0,4.0,93,0.00,,,0.00,0,weatherlink.com 1.10,2017-05-24 09:59:00,
2017-05-24 03:16:00,59.7,58.0,29.91,WSW,240,0.0,3.0,93,0.00,,,0.00,0,weatherlink.com 1.10,2017-05-24 10:16:00,
2017-05-24 03:30:00,59.6,57.0,29.91,WSW,240,0.0,3.0,92,0.00,,,0.00,0,weatherlink.com 1.10,2017-05-24 10:30:00,
2017-05-24 03:45:00,59.6,58.0,29.91,WSW,240,0.0,2.0,93,0.00,,,0.00,0,weatherlink.com 1.10,2017-05-24 10:45:00,
2017-05-24 03:59:00,59.5,57.0,29.89,WNW,300,0.0,3.0,93,0.00,,,0.00,0,weatherlink.com 1.10,2017-05-24 10:59:00,
2017-05-24 04:16:00,59.4,57.0,29.89,NNE,27,3.0,4.0,93,0.00,,,0.00,0,weatherlink.com 1.10,2017-05-24 11:16:00,
2017-05-24 04:30:00,59.6,58.0,29.88,North,360,0.0,3.0,93,0.00,,,0.00,0,weatherlink.com 1.10,2017-05-24 11:30:00,
2017-05-24 04:45:00,59.7,58.0,29.88,North,5,0.0,3.0,93,0.00,,,0.00,0,weatherlink.com 1.10,2017-05-24 11:45:00,
2017-05-24 04:59:00,60.0,58.0,29.88,North,5,0.0,2.0,93,0.00,,,0.00,0,weatherlink.com 1.10,2017-05-24 11:59:00,
2017-05-24 05:15:00,60.0,58.0,29.88,WSW,251,0.0,4.0,93,0.00,,,0.00,0,weatherlink.com 1.10,2017-05-24 12:15:00,
2017-05-24 05:30:00,59.9,58.0,29.88,WSW,251,0.0,2.0,93,0.00,,,0.00,0,weatherlink.com 1.10,2017-05-24 12:30:00,